EN

Hourly Weather Velletri

Today, 16 January, Saturday

Time Temperature Precipitation Wind Pressure Humidity
00:00 +4°C° 0 mm 2 mps 738 mmHg 71%
01:00 +2°C° 0 mm 3 mps 738 mmHg 68%
02:00 +2°C° 0 mm 3 mps 738 mmHg 69%
03:00 +3°C° 0 mm 2 mps 739 mmHg 70%
04:00 +2°C° 0 mm 2 mps 739 mmHg 71%
05:00 +2°C° 0 mm 2 mps 739 mmHg 70%
06:00 +2°C° 0 mm 2 mps 739 mmHg 69%
07:00 +2°C° 0 mm 2 mps 740 mmHg 67%
08:00 +3°C° 0 mm 2 mps 740 mmHg 64%
09:00 +4°C° 0 mm 2 mps 741 mmHg 60%
10:00 +4°C° 0 mm 2 mps 741 mmHg 56%
11:00 +5°C° 0 mm 2 mps 741 mmHg 52%
12:00 +8°C° 0 mm 1 mps 741 mmHg 48%
13:00 +9°C° 0 mm 1 mps 741 mmHg 45%
14:00 +8°C° 0 mm 1 mps 742 mmHg 47%
15:00 +8°C° 0 mm 1 mps 742 mmHg 49%
16:00 +8°C° 0 mm 1 mps 742 mmHg 52%
17:00 +6°C° 0 mm 1 mps 742 mmHg 55%
18:00 +5°C° 0 mm 1 mps 742 mmHg 57%
19:00 +3°C° 0 mm 2 mps 742 mmHg 60%
20:00 +3°C° 0 mm 2 mps 743 mmHg 58%
21:00 +3°C° 0 mm 2 mps 743 mmHg 57%
22:00 +3°C° 0 mm 2 mps 743 mmHg 55%
23:00 +3°C° 0 mm 2 mps 743 mmHg 58%

Tomorrow, 17 January, Sunday

Time Temperature Precipitation Wind Pressure Humidity
00:00 +3°C° 0 mm 2 mps 743 mmHg 60%
01:00 +3°C° 0 mm 2 mps 743 mmHg 63%
02:00 +3°C° 0 mm 2 mps 743 mmHg 67%
03:00 +2°C° 0 mm 2 mps 742 mmHg 70%
04:00 +2°C° 0 mm 2 mps 742 mmHg 74%
05:00 +2°C° 0 mm 2 mps 741 mmHg 76%
06:00 +2°C° 0 mm 2 mps 741 mmHg 78%
07:00 +2°C° 0 mm 2 mps 741 mmHg 80%
08:00 +3°C° 0.1 mm 2 mps 740 mmHg 78%
09:00 +3°C° 0.1 mm 3 mps 740 mmHg 75%
10:00 +4°C° 0.1 mm 3 mps 740 mmHg 72%
11:00 +4°C° 0.3 mm 3 mps 739 mmHg 75%
12:00 +4°C° 0.3 mm 3 mps 738 mmHg 77%
13:00 +4°C° 0.3 mm 3 mps 738 mmHg 79%
14:00 +4°C° 0.1 mm 3 mps 737 mmHg 79%
15:00 +4°C° 0.1 mm 3 mps 737 mmHg 80%
16:00 +4°C° 0.1 mm 3 mps 737 mmHg 80%
17:00 +4°C° 0 mm 2 mps 737 mmHg 81%
18:00 +4°C° 0 mm 2 mps 738 mmHg 82%
19:00 +3°C° 0 mm 2 mps 738 mmHg 83%
20:00 +3°C° 0 mm 2 mps 738 mmHg 82%
21:00 +2°C° 0 mm 2 mps 739 mmHg 82%
22:00 +2°C° 0 mm 2 mps 739 mmHg 81%
23:00 +2°C° 0 mm 2 mps 739 mmHg 80%

Day after tomorrow, 18 January, Monday

Time Temperature Precipitation Wind Pressure Humidity
00:00 +2°C° 0 mm 2 mps 740 mmHg 79%
01:00 +2°C° 0 mm 2 mps 740 mmHg 77%
02:00 +2°C° 0 mm 2 mps 740 mmHg 75%
03:00 +2°C° 0 mm 2 mps 740 mmHg 72%
04:00 +2°C° 0 mm 2 mps 741 mmHg 70%
05:00 +2°C° 0 mm 2 mps 741 mmHg 69%
06:00 +2°C° 0 mm 2 mps 742 mmHg 67%
07:00 +1°C° 0 mm 2 mps 742 mmHg 66%
08:00 +3°C° 0 mm 2 mps 743 mmHg 62%
09:00 +5°C° 0 mm 1 mps 744 mmHg 58%
10:00 +6°C° 0 mm 1 mps 744 mmHg 54%
11:00 +8°C° 0 mm 1 mps 744 mmHg 51%
12:00 +9°C° 0 mm 1 mps 745 mmHg 49%
13:00 +10°C° 0 mm 1 mps 745 mmHg 46%
14:00 +10°C° 0 mm 1 mps 745 mmHg 50%
15:00 +9°C° 0 mm 1 mps 745 mmHg 55%
16:00 +9°C° 0 mm 1 mps 745 mmHg 59%
17:00 +8°C° 0 mm 1 mps 746 mmHg 64%
18:00 +7°C° 0 mm 1 mps 746 mmHg 69%
19:00 +4°C° 0 mm 0 mps 747 mmHg 74%
20:00 +5°C° 0 mm 1 mps 747 mmHg 75%
21:00 +5°C° 0 mm 1 mps 747 mmHg 76%
22:00 +5°C° 0 mm 1 mps 747 mmHg 77%
23:00 +4°C° 0 mm 1 mps 747 mmHg 77%

19 January, Tuesday

Time Temperature Precipitation Wind Pressure Humidity
00:00 +4°C° 0 mm 1 mps 747 mmHg 76%
01:00 +3°C° 0 mm 2 mps 747 mmHg 76%
02:00 +3°C° 0 mm 2 mps 747 mmHg 76%
03:00 +3°C° 0 mm 2 mps 747 mmHg 75%
04:00 +3°C° 0 mm 2 mps 747 mmHg 75%
05:00 +3°C° 0 mm 2 mps 747 mmHg 76%
06:00 +3°C° 0 mm 2 mps 747 mmHg 78%
07:00 +3°C° 0 mm 2 mps 747 mmHg 79%
08:00 +4°C° 0 mm 2 mps 748 mmHg 76%
09:00 +6°C° 0 mm 2 mps 748 mmHg 72%
10:00 +7°C° 0 mm 2 mps 748 mmHg 68%
11:00 +8°C° 0 mm 2 mps 748 mmHg 66%
12:00 +9°C° 0 mm 2 mps 748 mmHg 63%
13:00 +10°C° 0 mm 2 mps 747 mmHg 60%
14:00 +10°C° 0.1 mm 2 mps 747 mmHg 65%
15:00 +9°C° 0.1 mm 2 mps 747 mmHg 70%
16:00 +9°C° 0.1 mm 3 mps 747 mmHg 74%
17:00 +8°C° 0.1 mm 3 mps 747 mmHg 76%
18:00 +8°C° 0.1 mm 3 mps 747 mmHg 78%
19:00 +7°C° 0.1 mm 3 mps 747 mmHg 79%
20:00 +7°C° 0.2 mm 3 mps 747 mmHg 80%
21:00 +7°C° 0.2 mm 3 mps 747 mmHg 81%
22:00 +7°C° 0.2 mm 3 mps 747 mmHg 82%
23:00 +7°C° 0.2 mm 3 mps 747 mmHg 83%

20 January, Wednesday

Time Temperature Precipitation Wind Pressure Humidity
00:00 +7°C° 0.2 mm 3 mps 747 mmHg 84%
01:00 +7°C° 0.2 mm 3 mps 747 mmHg 85%
02:00 +7°C° 0.1 mm 3 mps 746 mmHg 84%
03:00 +7°C° 0.1 mm 2 mps 746 mmHg 84%
04:00 +7°C° 0.1 mm 2 mps 746 mmHg 83%
05:00 +7°C° 0 mm 2 mps 746 mmHg 84%
06:00 +7°C° 0 mm 2 mps 746 mmHg 84%
07:00 +6°C° 0 mm 2 mps 746 mmHg 84%
08:00 +7°C° 0 mm 2 mps 746 mmHg 82%
09:00 +8°C° 0 mm 2 mps 745 mmHg 80%
10:00 +8°C° 0 mm 2 mps 745 mmHg 78%
11:00 +9°C° 0 mm 3 mps 745 mmHg 76%
12:00 +9°C° 0 mm 3 mps 745 mmHg 74%
13:00 +8°C° 0 mm 4 mps 744 mmHg 72%
14:00 +8°C° 0 mm 4 mps 744 mmHg 73%
15:00 +8°C° 0 mm 4 mps 744 mmHg 73%
16:00 +8°C° 0 mm 4 mps 743 mmHg 74%
17:00 +8°C° 0.3 mm 4 mps 743 mmHg 77%
18:00 +8°C° 0.3 mm 4 mps 743 mmHg 80%
19:00 +8°C° 0.3 mm 4 mps 743 mmHg 82%
20:00 +8°C° 0.3 mm 4 mps 742 mmHg 84%
21:00 +8°C° 0.3 mm 5 mps 742 mmHg 86%
22:00 +8°C° 0.3 mm 5 mps 742 mmHg 88%
23:00 +8°C° 0.2 mm 5 mps 742 mmHg 88%

21 January, Thursday

Time Temperature Precipitation Wind Pressure Humidity
00:00 +8°C° 0.2 mm 5 mps 741 mmHg 88%
01:00 +8°C° 0.2 mm 5 mps 741 mmHg 88%
02:00 +8°C° 0.2 mm 5 mps 741 mmHg 88%
03:00 +8°C° 0.2 mm 5 mps 741 mmHg 89%
04:00 +8°C° 0.2 mm 5 mps 740 mmHg 89%
05:00 +8°C° 0.2 mm 5 mps 740 mmHg 89%
06:00 +9°C° 0.2 mm 5 mps 740 mmHg 89%
07:00 +9°C° 0.2 mm 5 mps 740 mmHg 88%
08:00 +9°C° 0.2 mm 6 mps 740 mmHg 86%
09:00 +10°C° 0.2 mm 6 mps 740 mmHg 84%
10:00 +10°C° 0.2 mm 7 mps 740 mmHg 82%
11:00 +10°C° 0.3 mm 7 mps 739 mmHg 82%
12:00 +11°C° 0.3 mm 7 mps 739 mmHg 81%
13:00 +11°C° 0.3 mm 7 mps 739 mmHg 80%
14:00 +11°C° 0.3 mm 6 mps 739 mmHg 80%
15:00 +11°C° 0.3 mm 6 mps 739 mmHg 80%
16:00 +10°C° 0.3 mm 5 mps 738 mmHg 80%
17:00 +10°C° 0.2 mm 5 mps 738 mmHg 81%
18:00 +11°C° 0.2 mm 4 mps 738 mmHg 83%
19:00 +10°C° 0.2 mm 4 mps 739 mmHg 84%
20:00 +10°C° 0.9 mm 4 mps 739 mmHg 86%
21:00 +10°C° 0.9 mm 4 mps 739 mmHg 88%
22:00 +10°C° 0.9 mm 4 mps 738 mmHg 90%
23:00 +10°C° 0.9 mm 4 mps 738 mmHg 90%
Show more

We Need Your Consent

Meteoprog and our Service Providers may store and access personal data such as cookies, device identifiers or other similar technologies on your device and process such data to personalise content and ads, as well as provide social media features and to analyse the traffic.

  • Store and/or access information on your device

    Cookies, device identifiers or other information can be stored or accessed on your device for the purposes indicated above.

  • Personalised ads and content, ad and content measurement, audience insights, and products development

    Ads and content can be personalised based on a profile. More data can be added to better personalise ads and content. Ad and content performance can be measured. Insights about the audience who saw the ads and content can be derived. Such data can be used to develop or improve user’s experience, systems and software.

By clicking ‘I Agree’ you will allow the use of indicated cookies, device identifiers, web beacons or other similar technologies. Your settings can be changed in the browser on your device.

For certain purposes, legitimate interests may be relied on, rather than consent. You can read more about this in our Privacy and Cookie Policy.